Time,TemperatureF,DewpointF,PressureIn,WindDirection,WindDirectionDegrees,WindSpeedMPH,WindSpeedGustMPH,Humidity,HourlyPrecipIn,Conditions,Clouds,dailyrainin,SoftwareType,DateUTC
2013-10-15 00:13:00,60.0,-99.9,-100.00,SSE,160,4.0,-999.0,-999,0.00,,,0.00,,2013-10-15 05:13:00,
2013-10-15 00:23:00,60.0,-99.9,-100.00,SSE,160,4.0,-999.0,-999,0.00,,,0.00,,2013-10-15 05:23:00,
2013-10-15 00:43:00,60.0,-99.9,-100.00,SSE,152,4.0,-999.0,-999,0.01,,,0.01,,2013-10-15 05:43:00,
2013-10-15 00:53:00,60.0,-99.9,-100.00,SSE,152,4.0,-999.0,-999,0.01,,,0.01,,2013-10-15 05:53:00,
2013-10-15 01:12:00,60.0,-99.9,-100.00,SSE,149,7.0,-999.0,-999,0.01,,,0.01,,2013-10-15 06:12:00,
2013-10-15 01:22:00,60.0,-99.9,-100.00,SSE,149,7.0,-999.0,-999,0.01,,,0.01,,2013-10-15 06:22:00,
2013-10-15 01:43:00,60.0,-99.9,-100.00,SE,139,8.0,-999.0,-999,0.00,,,0.01,,2013-10-15 06:43:00,
2013-10-15 01:52:00,60.0,-99.9,-100.00,SE,139,8.0,-999.0,-999,0.00,,,0.01,,2013-10-15 06:52:00,
2013-10-15 02:12:00,61.0,-99.9,-100.00,SE,146,7.0,-999.0,-999,0.00,,,0.01,,2013-10-15 07:12:00,
2013-10-15 02:22:00,61.0,-99.9,-100.00,SE,146,7.0,-999.0,-999,0.00,,,0.01,,2013-10-15 07:22:00,
2013-10-15 02:42:00,61.0,-99.9,-100.00,SSE,148,8.0,-999.0,-999,0.00,,,0.01,,2013-10-15 07:42:00,
2013-10-15 02:53:00,61.0,-99.9,-100.00,SSE,148,8.0,-999.0,-999,0.00,,,0.01,,2013-10-15 07:53:00,
2013-10-15 03:12:00,61.0,-99.9,-100.00,SSE,163,5.0,-999.0,-999,0.00,,,0.01,,2013-10-15 08:12:00,
2013-10-15 03:22:00,61.0,-99.9,-100.00,SSE,163,5.0,-999.0,-999,0.00,,,0.01,,2013-10-15 08:22:00,
2013-10-15 03:42:00,62.0,-99.9,-100.00,SE,142,7.0,-999.0,-999,0.00,,,0.01,,2013-10-15 08:42:00,
2013-10-15 03:52:00,62.0,-99.9,-100.00,SE,142,7.0,-999.0,-999,0.00,,,0.01,,2013-10-15 08:52:00,
2013-10-15 04:12:00,62.0,-99.9,-100.00,SE,136,4.0,-999.0,-999,0.00,,,0.01,,2013-10-15 09:12:00,
2013-10-15 04:22:00,62.0,-99.9,-100.00,SE,136,4.0,-999.0,-999,0.00,,,0.01,,2013-10-15 09:22:00,
2013-10-15 04:43:00,62.0,-99.9,-100.00,SE,129,4.0,-999.0,-999,0.03,,,0.04,,2013-10-15 09:43:00,
2013-10-15 04:53:00,62.0,-99.9,-100.00,SE,129,4.0,-999.0,-999,0.03,,,0.04,,2013-10-15 09:53:00,
2013-10-15 05:13:00,62.0,-99.9,-100.00,SE,141,6.0,-999.0,-999,0.05,,,0.06,,2013-10-15 10:13:00,
2013-10-15 05:23:00,62.0,-99.9,-100.00,SE,141,6.0,-999.0,-999,0.05,,,0.06,,2013-10-15 10:23:00,
2013-10-15 05:43:00,62.0,-99.9,-100.00,SE,145,9.0,-999.0,-999,0.11,,,0.15,,2013-10-15 10:43:00,
2013-10-15 05:53:00,62.0,-99.9,-100.00,SE,145,9.0,-999.0,-999,0.11,,,0.15,,2013-10-15 10:53:00,
2013-10-15 06:12:00,62.0,-99.9,-100.00,SE,145,8.0,-999.0,-999,0.10,,,0.16,,2013-10-15 11:12:00,
2013-10-15 06:22:00,62.0,-99.9,-100.00,SE,145,8.0,-999.0,-999,0.10,,,0.16,,2013-10-15 11:22:00,
2013-10-15 06:42:00,62.0,-99.9,-100.00,SE,125,3.0,-999.0,-999,0.13,,,0.28,,2013-10-15 11:42:00,
2013-10-15 06:53:00,62.0,-99.9,-100.00,SE,125,3.0,-999.0,-999,0.13,,,0.28,,2013-10-15 11:53:00,
2013-10-15 07:12:00,62.0,-99.9,-100.00,SSE,148,6.0,-999.0,-999,0.13,,,0.29,,2013-10-15 12:12:00,
2013-10-15 07:22:00,62.0,-99.9,-100.00,SSE,148,6.0,-999.0,-999,0.13,,,0.29,,2013-10-15 12:22:00,
2013-10-15 07:30:00,62.0,-99.9,-100.00,SE,135,7.0,-999.0,-999,0.01,,,0.30,,2013-10-15 12:30:00,
2013-10-15 07:42:00,62.0,-99.9,-100.00,SE,143,5.0,-999.0,-999,0.02,,,0.30,,2013-10-15 12:42:00,
2013-10-15 07:52:00,62.0,-99.9,-100.00,SE,143,5.0,-999.0,-999,0.02,,,0.30,,2013-10-15 12:52:00,
2013-10-15 08:11:00,62.0,-99.9,-100.00,SE,135,7.0,-999.0,-999,0.01,,,0.30,,2013-10-15 13:11:00,
2013-10-15 08:22:00,62.0,-99.9,-100.00,SE,135,7.0,-999.0,-999,0.01,,,0.30,,2013-10-15 13:22:00,
2013-10-15 08:30:00,63.0,-99.9,-100.00,SE,130,3.0,-999.0,-999,0.00,,,0.30,,2013-10-15 13:30:00,
2013-10-15 09:12:00,63.0,-99.9,-100.00,SE,130,3.0,-999.0,-999,0.00,,,0.30,,2013-10-15 14:12:00,
2013-10-15 09:22:00,63.0,-99.9,-100.00,SE,130,3.0,-999.0,-999,0.00,,,0.30,,2013-10-15 14:22:00,
2013-10-15 10:11:00,63.0,-99.9,-100.00,ESE,111,2.0,-999.0,-999,0.00,,,0.30,,2013-10-15 15:11:00,
2013-10-15 10:22:00,63.0,-99.9,-100.00,ESE,111,2.0,-999.0,-999,0.00,,,0.30,,2013-10-15 15:22:00,
2013-10-15 10:44:00,63.0,-99.9,-100.00,ENE,69,1.0,-999.0,-999,0.00,,,0.30,,2013-10-15 15:44:00,
2013-10-15 10:54:00,63.0,-99.9,-100.00,ENE,69,1.0,-999.0,-999,0.00,,,0.30,,2013-10-15 15:54:00,
2013-10-15 11:13:00,63.0,-99.9,-100.00,SE,129,1.0,-999.0,-999,0.00,,,0.30,,2013-10-15 16:13:00,
2013-10-15 11:23:00,63.0,-99.9,-100.00,SE,129,1.0,-999.0,-999,0.00,,,0.30,,2013-10-15 16:23:00,
2013-10-15 11:43:00,65.0,-99.9,-100.00,WNW,288,1.0,-999.0,-999,0.00,,,0.30,,2013-10-15 16:43:00,
2013-10-15 11:53:00,65.0,-99.9,-100.00,WNW,288,1.0,-999.0,-999,0.00,,,0.30,,2013-10-15 16:53:00,
2013-10-15 12:12:00,66.0,-99.9,-100.00,WSW,237,3.0,-999.0,-999,0.00,,,0.30,,2013-10-15 17:12:00,
2013-10-15 12:22:00,66.0,-99.9,-100.00,WSW,237,3.0,-999.0,-999,0.00,,,0.30,,2013-10-15 17:22:00,
2013-10-15 12:43:00,66.0,-99.9,-100.00,SSW,208,3.0,-999.0,-999,0.00,,,0.30,,2013-10-15 17:43:00,
2013-10-15 12:53:00,66.0,-99.9,-100.00,SSW,208,3.0,-999.0,-999,0.00,,,0.30,,2013-10-15 17:53:00,
2013-10-15 13:12:00,66.0,-99.9,-100.00,NW,316,2.0,-999.0,-999,0.00,,,0.30,,2013-10-15 18:12:00,
2013-10-15 13:22:00,66.0,-99.9,-100.00,NW,316,2.0,-999.0,-999,0.00,,,0.30,,2013-10-15 18:22:00,
2013-10-15 13:42:00,67.0,-99.9,-100.00,SW,227,2.0,-999.0,-999,0.00,,,0.30,,2013-10-15 18:42:00,
2013-10-15 13:52:00,67.0,-99.9,-100.00,SW,227,2.0,-999.0,-999,0.00,,,0.30,,2013-10-15 18:52:00,
2013-10-15 14:12:00,68.0,-99.9,-100.00,SSW,206,2.0,-999.0,-999,0.00,,,0.30,,2013-10-15 19:12:00,
2013-10-15 14:22:00,68.0,-99.9,-100.00,SSW,206,2.0,-999.0,-999,0.00,,,0.30,,2013-10-15 19:22:00,
2013-10-15 14:42:00,68.0,-99.9,-100.00,WNW,293,2.0,-999.0,-999,0.00,,,0.30,,2013-10-15 19:42:00,
2013-10-15 14:52:00,68.0,-99.9,-100.00,WNW,293,2.0,-999.0,-999,0.00,,,0.30,,2013-10-15 19:52:00,
2013-10-15 15:12:00,66.0,-99.9,-100.00,West,260,3.0,-999.0,-999,0.00,,,0.30,,2013-10-15 20:12:00,
2013-10-15 15:22:00,66.0,-99.9,-100.00,West,260,3.0,-999.0,-999,0.00,,,0.30,,2013-10-15 20:22:00,
2013-10-15 15:42:00,67.0,-99.9,-100.00,WNW,284,2.0,-999.0,-999,0.00,,,0.30,,2013-10-15 20:42:00,
2013-10-15 15:52:00,67.0,-99.9,-100.00,WNW,284,2.0,-999.0,-999,0.00,,,0.30,,2013-10-15 20:52:00,
2013-10-15 16:13:00,67.0,-99.9,-100.00,WSW,250,1.0,-999.0,-999,0.00,,,0.30,,2013-10-15 21:13:00,
2013-10-15 16:22:00,67.0,-99.9,-100.00,WSW,250,1.0,-999.0,-999,0.00,,,0.30,,2013-10-15 21:22:00,
2013-10-15 16:44:00,66.0,-99.9,-100.00,NW,306,3.0,-999.0,-999,0.00,,,0.30,,2013-10-15 21:44:00,
2013-10-15 16:54:00,66.0,-99.9,-100.00,NW,306,3.0,-999.0,-999,0.00,,,0.30,,2013-10-15 21:54:00,
2013-10-15 17:13:00,64.0,-99.9,-100.00,SW,235,2.0,-999.0,-999,0.00,,,0.30,,2013-10-15 22:13:00,
2013-10-15 17:24:00,64.0,-99.9,-100.00,SW,235,2.0,-999.0,-999,0.00,,,0.30,,2013-10-15 22:24:00,
2013-10-15 17:43:00,66.0,-99.9,-100.00,SSW,197,1.0,-999.0,-999,0.00,,,0.30,,2013-10-15 22:43:00,
2013-10-15 17:54:00,66.0,-99.9,-100.00,SSW,197,1.0,-999.0,-999,0.00,,,0.30,,2013-10-15 22:54:00,
2013-10-15 18:12:00,63.0,-99.9,-100.00,WSW,256,1.0,-999.0,-999,0.00,,,0.30,,2013-10-15 23:12:00,
2013-10-15 18:22:00,63.0,-99.9,-100.00,WSW,256,1.0,-999.0,-999,0.00,,,0.30,,2013-10-15 23:22:00,
2013-10-15 18:43:00,61.0,-99.9,-100.00,South,190,1.0,-999.0,-999,0.00,,,0.30,,2013-10-15 23:43:00,
2013-10-15 18:53:00,61.0,-99.9,-100.00,South,190,1.0,-999.0,-999,0.00,,,0.30,,2013-10-15 23:53:00,
2013-10-15 19:12:00,60.0,-99.9,-100.00,South,177,1.0,-999.0,-999,0.00,,,0.30,,2013-10-16 00:12:00,
2013-10-15 19:22:00,60.0,-99.9,-100.00,South,177,1.0,-999.0,-999,0.00,,,0.30,,2013-10-16 00:22:00,
2013-10-15 19:42:00,59.0,-99.9,-100.00,South,184,2.0,-999.0,-999,0.00,,,0.30,,2013-10-16 00:42:00,
2013-10-15 19:52:00,59.0,-99.9,-100.00,South,184,2.0,-999.0,-999,0.00,,,0.30,,2013-10-16 00:52:00,
2013-10-15 20:12:00,56.0,-99.9,-100.00,SSW,199,1.0,-999.0,-999,0.00,,,0.30,,2013-10-16 01:12:00,
2013-10-15 20:22:00,56.0,-99.9,-100.00,SSW,199,1.0,-999.0,-999,0.00,,,0.30,,2013-10-16 01:22:00,
2013-10-15 20:43:00,55.0,-99.9,-100.00,WSW,238,0.0,-999.0,-999,0.00,,,0.30,,2013-10-16 01:43:00,
2013-10-15 20:53:00,55.0,-99.9,-100.00,WSW,238,0.0,-999.0,-999,0.00,,,0.30,,2013-10-16 01:53:00,
2013-10-15 21:12:00,56.0,-99.9,-100.00,SSE,166,1.0,-999.0,-999,0.00,,,0.30,,2013-10-16 02:12:00,
2013-10-15 21:22:00,56.0,-99.9,-100.00,SSE,166,1.0,-999.0,-999,0.00,,,0.30,,2013-10-16 02:22:00,
2013-10-15 21:43:00,56.0,-99.9,-100.00,SSE,153,2.0,-999.0,-999,0.00,,,0.30,,2013-10-16 02:43:00,
2013-10-15 21:52:00,56.0,-99.9,-100.00,SSE,153,2.0,-999.0,-999,0.00,,,0.30,,2013-10-16 02:52:00,
2013-10-15 22:11:00,56.0,-99.9,-100.00,NW,316,2.0,-999.0,-999,0.00,,,0.30,,2013-10-16 03:11:00,
2013-10-15 22:22:00,56.0,-99.9,-100.00,NW,316,2.0,-999.0,-999,0.00,,,0.30,,2013-10-16 03:22:00,
2013-10-15 22:45:00,55.0,-99.9,-100.00,WNW,303,6.0,-999.0,-999,0.00,,,0.30,,2013-10-16 03:45:00,
2013-10-15 22:55:00,55.0,-99.9,-100.00,WNW,303,6.0,-999.0,-999,0.00,,,0.30,,2013-10-16 03:55:00,
2013-10-15 23:14:00,54.0,-99.9,-100.00,NW,311,6.0,-999.0,-999,0.00,,,0.30,,2013-10-16 04:14:00,
2013-10-15 23:24:00,54.0,-99.9,-100.00,NW,311,6.0,-999.0,-999,0.00,,,0.30,,2013-10-16 04:24:00,
2013-10-15 23:30:00,52.0,-99.9,-100.00,NNW,337,2.0,-999.0,-999,0.00,,,0.30,,2013-10-16 04:30:00,
2013-10-15 23:44:00,53.0,-99.9,-100.00,NW,304,4.0,-999.0,-999,0.00,,,0.30,,2013-10-16 04:44:00,
2013-10-15 23:54:00,53.0,-99.9,-100.00,NW,304,4.0,-999.0,-999,0.00,,,0.30,,2013-10-16 04:54:00,